Fort Myers Airport, FL

4:09 PM EST on February 24, 2018 (GMT -0500)
Southwest Florida International

Weather History for KRSW - August, 2013

Change the Weather History Date:

Tuesday, August 13, 2013

  Actual Average Record
Temperature  
Mean Temperature 82 °F -  
Max Temperature 93 °F 90 °F 97 °F (1942)
Min Temperature 72 °F 74 °F 70 °F (1931)
Cooling Degree Days 16    
Growing Degree Days 32 (Base 50)    
Moisture  
Dew Point 73 °F    
Average Humidity 80    
Maximum Humidity 96    
Minimum Humidity 50    
Precipitation  
Precipitation 0.42 in - - ()
Sea Level Pressure  
Sea Level Pressure 30.01 in    
Wind  
Wind Speed 5 mph (ENE)    
Max Wind Speed 15 mph    
Max Gust Speed 28 mph    
Visibility 9 miles    
Events Rain    
Averages and records for this station are not official NWS values.
T = Trace of Precipitation, MM = Missing Value Source: NWS Daily Summary

Daily Weather History Graph

Daily Weather History Graph

Search for Another Location

Airport or City:

Trip Planner

Search our weather history database for the weather conditions in past years. The results will help you decide how hot, cold, wet, or windy it might be!

Date:

Astronomy

Aug. 13, 2013 Rise Set
Actual Time 6:58 AM EDT 8:05 PM EDT
Civil Twilight 6:33 AM EDT 8:29 PM EDT
Nautical Twilight 6:05 AM EDT 8:58 PM EDT
Astronomical Twilight 5:35 AM EDT 9:27 PM EDT
Moon 1:07 PM EDT (8/13) No Moon Set
Length of Visible Light 13h 55m
Length of Day
13h 06m
Waxing Crescent, 41% of the Moon is Illuminated
Aug 13
Waxing Crescent
Aug 14
First Quarter
Aug 20
Full
Aug 28
Last Quarter
Sep 5
New

Hourly Weather History & Observations

Time (EDT) Temp. Heat Index Dew Point Humidity Pressure Visibility Wind Dir Wind Speed Gust Speed Precip Events Conditions
12:53 AM 78.1 °F - 73.0 °F 84% 30.05 in 10.0 mi East 5.8 mph - N/A   Clear
1:53 AM 77.0 °F - 73.9 °F 90% 30.04 in 10.0 mi East 4.6 mph - N/A   Clear
2:53 AM 75.9 °F - 73.9 °F 94% 30.02 in 10.0 mi ESE 3.5 mph - N/A   Clear
3:53 AM 75.9 °F - 73.9 °F 94% 30.02 in 10.0 mi Calm Calm - N/A   Clear
4:53 AM 75.9 °F - 73.9 °F 94% 30.02 in 10.0 mi ESE 3.5 mph - N/A   Clear
5:53 AM 75.0 °F - 73.9 °F 96% 30.02 in 10.0 mi East 3.5 mph - N/A   Clear
6:53 AM 75.0 °F - 73.9 °F 96% 30.03 in 10.0 mi Calm Calm - N/A   Clear
7:53 AM 77.0 °F - 75.0 °F 94% 30.04 in 10.0 mi ENE 3.5 mph - N/A   Clear
8:53 AM 80.1 °F 85.1 °F 75.0 °F 85% 30.03 in 10.0 mi ENE 3.5 mph - N/A   Clear
9:53 AM 82.9 °F 90.2 °F 75.0 °F 77% 30.03 in 10.0 mi Calm Calm - N/A   Clear
10:53 AM 84.9 °F 92.1 °F 73.9 °F 69% 30.03 in 10.0 mi Calm Calm - N/A   Partly Cloudy
11:53 AM 87.1 °F 94.5 °F 73.0 °F 63% 30.03 in 10.0 mi Variable 5.8 mph - N/A   Partly Cloudy
12:53 PM 88.0 °F 93.8 °F 71.1 °F 57% 30.01 in 10.0 mi Variable 5.8 mph - N/A   Partly Cloudy
1:53 PM 90.0 °F 95.4 °F 70.0 °F 52% 30.00 in 10.0 mi Variable 5.8 mph - N/A   Scattered Clouds
2:53 PM 91.9 °F 98.4 °F 71.1 °F 50% 29.98 in 10.0 mi ESE 4.6 mph - N/A   Partly Cloudy
3:53 PM 90.0 °F 99.0 °F 73.9 °F 59% 29.96 in 10.0 mi SW 5.8 mph - N/A   Clear
4:53 PM 86.0 °F 96.0 °F 75.9 °F 72% 29.95 in 10.0 mi SW 15.0 mph - 0.00 in Rain Light Rain
5:53 PM 84.9 °F 91.4 °F 73.0 °F 67% 29.96 in 10.0 mi West 9.2 mph - 0.00 in   Mostly Cloudy
6:53 PM 84.9 °F 91.4 °F 73.0 °F 67% 29.95 in 10.0 mi WNW 4.6 mph - N/A   Mostly Cloudy
7:53 PM 84.0 °F 90.2 °F 73.0 °F 69% 29.95 in 10.0 mi SW 8.1 mph - N/A   Overcast
8:40 PM 75.2 °F - 71.6 °F 89% 30.02 in 10.0 mi NNE 15.0 mph 27.6 mph 0.01 in   Overcast
8:53 PM 72.0 °F - 68.0 °F 87% 30.01 in 2.5 mi North 13.8 mph - 0.11 in Rain Heavy Rain
9:03 PM 73.4 °F - 69.8 °F 88% 30.01 in 1.5 mi Variable 5.8 mph - 0.20 in Rain Heavy Rain
9:19 PM 73.4 °F - 71.6 °F 94% 30.00 in 3.0 mi North 5.8 mph - 0.31 in Rain Light Rain
9:53 PM 73.9 °F - 72.0 °F 93% 30.01 in 10.0 mi Calm Calm - 0.31 in   Clear
10:53 PM 75.0 °F - 72.0 °F 90% 30.03 in 10.0 mi Calm Calm - N/A   Clear
11:53 PM 75.9 °F - 73.9 °F 94% 30.03 in 10.0 mi Calm Calm - N/A   Clear